Home > Weather > Victoria > Past weeks

Flag for USA Weather for the Past 2 Weeks in Victoria, Texas, USA

Now
59 °F

Clear.


Feels Like: 58 °F
Forecast: 56 / 86 °F
Wind: 7 mph from Northeast

Location: Victoria Regional Airport

Current Time: May 6, 2016 at 5:14:53 AM

Latest Report: May 6, 2016 at 4:51 AM


Visibility: 10 mi

Pressure: 30.00 "Hg

Humidity: 90%

Dew Point: 56 °F

Location of VictoriaLocation

Historic Weather in Victoria — Graph

°F

Victoria Temperature Yesterday

Maximum temperature yesterday: 90 °F (at 2:51 PM)
Minimum temperature yesterday: 59 °F (at 4:51 AM)
Average temperature yesterday: 74 °F

High & Low Weather Summary for the Past Weeks

 TemperatureHumidityPressure
High90 °F (May 5, 2:51 PM)97% (Apr 21, 3:57 AM)30.11 "Hg (Apr 21, 3:57 AM)
Low53 °F (May 4, 6:51 AM)28% (May 5, 2:51 PM)29.58 "Hg (Apr 30, 3:51 AM)
Average74 °F77%29.87 "Hg
* Reported Apr 21 3:01 AM — May 6 3:51 AM, Victoria, Weather by CustomWeather, © 2016

Note: Actual official high and low records may vary slightly from our data, if they occured in-between our weather recording intervals... More about our weather records

Advertising

Victoria Weather History for the Previous 24 Hours

Scroll right to see more
 ConditionsComfort  
Time TempWeatherWind HumidityBarometerVisibility
3:51 AM
Fri, May 6
59 °FClear.5 mph87%30.00 "Hg10 mi
2:51 AM61 °FClear.3 mph90%30.00 "Hg10 mi
1:51 AM64 °FClear.3 mph78%30.01 "Hg10 mi
12:51 AM65 °FClear.6 mph81%30.02 "Hg10 mi
11:51 PM
Thu, May 5
67 °FClear.6 mph73%30.01 "Hg10 mi
10:51 PM68 °FClear.5 mph78%30.01 "Hg10 mi
9:51 PM68 °FClear.7 mph82%29.99 "Hg10 mi
8:51 PM73 °FSunny.5 mph74%29.96 "Hg10 mi
7:51 PM80 °FSunny.5 mph49%29.94 "Hg10 mi
6:51 PM86 °FSunny.6 mph33%29.94 "Hg10 mi
5:51 PM88 °FSunny.7 mph29%29.95 "Hg10 mi
4:51 PM89 °FSunny.7 mph28%29.96 "Hg10 mi
3:51 PM89 °FSunny.7 mph28%29.98 "Hg10 mi
2:51 PM90 °FSunny.6 mph28%29.99 "Hg10 mi
1:51 PM87 °FSunny.5 mph30%30.02 "Hg10 mi
12:51 PM86 °FSunny.6 mph30%30.04 "Hg10 mi
11:51 AM84 °FSunny.7 mph33%30.06 "Hg10 mi
10:51 AM81 °FSunny.7 mph45%30.06 "Hg10 mi
9:51 AM76 °FSunny.8 mph56%30.06 "Hg10 mi
8:51 AM70 °FSunny.7 mph68%30.05 "Hg10 mi
7:51 AM63 °FSunny.3 mph87%30.04 "Hg10 mi
6:51 AM59 °FClear.5 mph90%30.03 "Hg10 mi
5:51 AM59 °FClear.7 mph90%30.02 "Hg10 mi
Weather by CustomWeather, © 2016

See weather overviewHow to use our weather pages